Theta_e
348 338 340 338 340 342 349 350 349 345 342 337 337 339 336 334 337 336 338 340 340 341 341 335 334 329 326 326 326 325 326 325 328 333 335 335 332 334 337 339 337 335 334
349 341 339 337 341 342 348 348 348 345 341 339 337 340 336 337 339 341 341 341 341 341 341 338 337 327 328 329 328 327 326 325 325 331 336 336 333 331 333 332 333 332 332
348 342 337 337 340 342 349 348 347 344 342 340 338 340 336 338 340 341 339 338 339 339 340 337 334 329 330 330 329 329 328 326 324 329 334 340 335 332 332 332 333 333 333
348 345 340 336 338 341 347 347 347 344 342 341 340 339 337 339 341 338 339 340 339 337 338 337 338 331 330 329 328 328 329 329 326 327 340 338 339 336 334 334 337 339 335
347 346 346 337 337 340 346 346 346 343 342 342 341 338 336 339 340 338 339 338 338 337 338 337 333 330 328 324 320 318 322 328 333 340 339 339 337 338 337 338 336 336 336
346 344 346 338 337 339 342 346 345 344 344 342 340 338 336 339 339 338 338 337 337 336 336 333 330 327 319 311 308 308 321 326 333 336 336 336 335 336 335 334 334 333 332
346 347 345 341 338 338 341 345 346 346 345 342 340 338 338 339 338 337 337 337 336 335 332 329 325 315 308 308 308 316 323 327 334 332 333 333 332 332 332 332 331 329 329
346 348 345 341 339 337 339 343 345 345 344 342 340 338 338 338 338 337 337 336 334 332 329 322 312 307 308 309 310 320 323 327 331 328 330 331 331 330 329 328 327 326 326
345 346 347 341 340 340 338 339 342 345 344 341 339 338 338 338 337 337 335 334 332 327 320 311 307 308 309 310 311 321 323 326 330 329 328 329 328 327 326 325 324 323 323
344 346 345 343 343 342 339 339 339 341 340 339 339 339 339 338 337 336 334 332 328 321 311 308 308 308 309 310 314 320 322 325 325 325 324 326 324 323 322 321 321 320 321
344 344 345 344 344 343 343 341 339 339 339 339 339 339 339 337 336 334 331 325 322 316 312 309 309 309 309 310 314 319 326 326 326 324 324 322 320 320 320 319 319 319 319
344 343 343 341 343 344 344 342 342 341 339 339 339 339 338 335 333 329 326 323 321 312 310 308 309 310 310 314 319 321 324 324 324 323 322 320 320 318 316 316 316 316 316
343 342 342 344 342 343 344 341 341 340 339 338 338 337 335 330 327 325 322 319 318 312 311 309 309 315 313 317 319 324 322 323 321 320 320 319 319 318 315 314 314 313 313
343 343 342 342 343 343 342 341 340 339 338 336 336 335 331 327 324 323 320 318 316 315 312 308 314 316 315 318 321 322 321 320 319 317 316 316 317 317 316 315 314 315 314
342 341 343 344 344 343 341 340 337 336 336 336 334 330 329 327 325 324 320 319 316 317 314 312 315 316 318 318 319 321 319 318 317 315 312 313 313 314 314 315 315 314 313
342 341 341 343 344 342 339 338 336 336 336 335 332 329 328 326 325 323 321 319 317 316 313 312 315 317 318 318 318 318 316 315 313 313 311 310 310 311 313 315 316 314 313
341 340 340 342 343 341 338 336 335 334 333 332 331 329 328 326 325 323 320 318 316 314 312 311 315 317 316 316 315 315 313 312 310 309 308 306 307 308 309 310 312 313 313
339 341 339 339 341 338 336 335 333 331 332 331 330 327 325 324 325 322 319 316 314 312 310 314 316 314 313 312 311 310 310 309 308 307 306 304 304 304 305 305 307 308 310
329 340 338 336 337 336 334 332 332 330 329 328 328 326 323 322 322 320 318 315 313 311 311 315 315 313 311 309 307 307 306 306 305 305 305 305 303 301 301 302 303 304 306
333 340 337 334 334 334 331 330 327 328 326 326 325 323 322 321 320 318 315 311 310 311 312 314 314 312 309 308 306 305 304 303 303 303 303 303 303 302 302 300 301 301 301
334 337 336 332 332 330 326 325 324 323 322 322 322 323 322 319 316 312 311 311 311 312 313 314 312 311 308 306 305 304 303 303 302 302 301 302 302 302 302 301 299 298 300
334 335 335 332 329 328 326 323 321 320 319 320 320 318 318 316 312 310 311 312 311 311 313 312 312 310 308 305 304 303 302 302 302 302 301 301 301 301 300 299 298 297 296
332 335 335 331 328 326 324 322 320 319 319 318 316 315 315 313 311 311 313 312 310 310 313 312 311 309 306 305 304 307 304 304 302 301 302 301 300 299 298 297 296 296 295
325 336 335 333 329 326 323 321 320 320 320 318 317 315 313 312 312 312 312 312 310 311 313 312 311 308 306 306 304 307 310 303 302 301 301 301 300 299 298 297 296 296 295
318 320 321 332 331 327 324 321 320 320 321 320 319 317 315 312 313 312 311 312 310 310 312 312 311 309 306 306 306 307 305 303 302 301 300 300 300 299 298 297 296 296 294
315 315 318 321 330 327 324 322 319 319 319 318 319 317 315 313 313 312 311 311 310 310 311 312 311 308 306 307 309 308 308 307 304 302 300 299 298 298 298 297 296 295 293
Wind_Speed
19 23 22 21 17 15 14 14 20 23 23 21 19 18 19 19 19 18 17 16 16 15 14 11 10 8 10 9 9 9 9 9 10 10 11 10 13 13 15 18 14 15 15
23 22 22 20 16 15 15 15 19 22 23 21 21 20 20 20 19 18 17 15 16 13 12 11 9 8 10 10 9 8 8 8 8 8 9 9 11 12 12 12 14 15 15
24 20 23 21 18 15 15 17 21 23 23 23 22 22 21 20 19 17 15 14 13 12 10 7 8 10 9 8 7 7 7 8 9 6 5 10 10 13 13 12 14 13 13
23 20 23 24 22 18 18 19 21 23 23 23 23 22 21 20 17 17 16 14 11 9 9 8 8 8 8 6 6 6 7 9 7 9 20 17 15 15 15 13 14 17 13
19 22 24 26 24 23 22 22 24 24 24 24 24 24 23 22 20 19 17 13 10 10 9 9 7 6 6 6 6 7 8 8 13 17 18 16 16 15 16 15 14 13 16
17 19 23 26 25 23 22 25 26 26 26 26 27 26 26 24 22 21 17 13 11 11 9 7 6 6 6 7 9 11 10 8 13 13 21 19 17 15 16 14 16 15 15
20 20 23 25 26 25 25 26 26 28 27 28 27 26 25 23 21 20 23 16 13 11 8 7 6 6 7 8 10 13 10 11 19 15 19 19 15 14 19 18 17 17 15
21 20 22 24 26 26 26 25 25 26 27 29 28 27 26 24 23 20 19 21 16 13 10 8 7 6 8 10 11 11 9 15 13 15 17 18 18 20 20 21 20 20 20
16 20 20 25 27 27 26 26 26 27 28 30 29 28 26 23 21 20 13 16 14 10 9 9 9 8 8 10 13 13 15 20 21 22 19 20 20 22 22 21 18 18 19
16 17 21 23 25 26 26 26 26 28 30 30 30 28 25 23 21 19 16 16 16 15 13 11 10 9 11 12 15 15 13 15 16 21 18 18 18 17 16 15 14 17 17
17 19 19 23 24 26 24 25 25 26 29 31 31 28 25 23 21 19 16 18 17 18 15 14 11 10 13 15 18 11 11 24 26 21 21 15 16 16 19 20 19 20 19
21 21 22 26 24 25 25 29 28 29 30 30 28 27 26 23 18 19 21 20 18 20 16 15 14 15 15 17 11 12 13 22 28 25 21 17 18 16 16 16 16 17 17
21 25 27 25 29 29 27 30 31 33 30 28 30 29 24 25 26 22 22 19 19 18 16 18 20 17 15 14 5 20 13 19 28 27 23 20 18 15 15 15 16 15 15
23 22 28 33 28 30 30 29 31 36 35 31 30 29 29 25 26 24 25 21 19 19 17 20 17 16 17 15 15 16 14 24 28 26 22 21 19 17 17 16 17 18 18
26 27 25 28 30 28 32 34 35 35 35 35 33 33 32 27 26 22 24 23 20 20 19 18 15 19 19 27 26 14 23 23 21 21 21 17 17 18 16 15 16 17 17
31 30 29 27 25 30 34 37 36 36 37 37 35 35 30 30 30 26 22 27 25 22 21 21 21 20 18 18 27 24 21 17 14 20 18 16 16 19 18 18 18 16 16
35 34 37 28 28 30 32 36 34 36 39 38 36 33 30 27 31 32 29 26 27 25 23 20 21 18 20 19 20 24 26 24 17 16 12 10 17 18 18 19 19 18 16
25 33 32 33 32 29 32 36 35 34 37 37 35 35 32 23 30 30 29 27 27 25 25 24 24 25 23 21 21 22 22 23 21 18 14 8 11 16 19 17 19 18 17
15 32 31 33 32 32 32 31 34 32 32 34 34 33 32 28 31 31 30 28 27 27 30 29 26 27 25 23 21 19 18 18 17 18 17 15 8 8 13 15 17 20 20
17 31 32 32 34 31 29 33 27 34 34 37 36 37 38 38 36 31 30 27 29 30 29 30 27 29 30 29 25 24 18 16 14 17 14 12 12 7 9 10 9 14 18
24 31 31 32 33 33 26 29 28 27 30 33 38 39 35 38 35 34 30 30 32 33 31 32 31 31 31 31 27 23 18 14 13 15 12 12 11 12 11 7 12 11 15
24 28 28 28 32 34 34 29 19 29 27 36 38 36 36 39 38 38 33 34 35 31 32 34 31 29 29 35 21 17 4 7 10 12 15 14 13 14 15 15 13 11 10
9 24 24 29 29 32 31 29 20 22 17 21 27 29 36 39 42 40 32 34 38 33 35 37 36 33 31 28 34 8 4 4 14 11 14 16 14 13 11 13 13 16 17
11 20 24 26 29 29 28 28 27 22 20 25 28 30 33 39 43 43 39 37 41 35 34 37 38 35 35 29 36 14 4 22 4 5 17 17 17 15 15 15 14 13 8
24 24 19 22 32 30 33 27 28 23 23 23 28 29 31 35 35 41 42 39 43 36 37 37 37 34 36 31 27 16 18 23 19 10 8 16 16 16 17 15 14 15 15
21 22 23 25 17 28 31 30 27 26 24 22 25 26 31 33 34 36 39 39 41 36 40 39 39 35 34 31 28 26 22 17 19 13 8 19 17 20 17 17 15 17 15
Wind_Direction
124 148 160 159 158 153 143 154 164 168 165 163 159 151 146 138 131 125 121 120 114 114 116 116 115 116 104 98 90 83 79 78 81 85 80 82 87 83 69 79 70 69 71
127 147 161 161 161 158 145 157 167 168 166 163 158 155 149 141 135 129 128 126 121 118 115 115 119 106 102 100 94 85 81 83 87 97 86 81 94 91 77 70 68 70 71
130 155 162 164 163 159 145 160 166 169 169 165 163 159 153 146 140 135 127 126 120 117 118 123 110 102 101 100 95 90 85 84 94 89 103 117 98 91 82 75 73 66 73
142 157 167 170 167 163 148 157 166 170 170 168 165 160 156 150 145 139 128 127 138 136 129 121 114 111 110 105 100 96 91 96 94 29 60 135 91 82 83 74 84 73 71
148 159 172 171 170 166 157 162 167 173 174 172 169 167 163 161 155 147 141 149 151 147 139 132 134 126 118 114 105 102 114 113 56 76 88 95 83 80 94 91 87 83 75
162 165 179 177 173 170 165 165 174 176 178 176 175 174 172 169 161 153 147 154 158 156 148 144 147 134 124 110 106 112 119 108 81 84 85 89 88 85 84 84 80 80 75
162 164 174 183 178 175 171 172 179 178 180 177 177 176 173 169 162 161 155 156 167 163 156 158 152 137 120 111 114 125 99 64 113 86 88 85 85 83 79 79 74 71 69
159 163 175 182 183 180 179 179 178 180 178 176 175 175 175 172 167 167 173 159 172 173 160 162 151 137 125 115 118 125 94 85 85 84 94 85 86 84 79 78 76 71 65
163 163 177 181 184 185 184 184 179 179 178 175 174 174 175 172 172 168 167 160 170 156 161 160 154 147 133 121 123 116 74 89 94 92 95 95 87 80 77 74 72 70 68
169 168 178 179 187 188 187 188 185 181 178 176 175 176 176 176 175 176 178 177 163 161 161 161 157 142 126 119 122 114 91 98 103 96 97 99 83 72 70 67 69 66 63
181 182 180 178 186 189 189 190 192 189 183 180 179 179 176 175 177 180 176 166 156 152 158 156 148 138 128 124 129 91 66 93 95 103 104 97 86 77 80 77 73 72 69
188 187 188 188 188 188 186 190 191 188 186 185 183 178 179 175 172 169 169 164 158 157 164 151 140 126 121 126 111 96 104 100 100 98 100 97 88 85 77 75 73 73 71
196 191 196 194 194 189 187 190 183 182 180 180 186 178 176 162 159 165 164 164 159 155 154 142 138 125 135 134 95 134 119 116 107 99 99 97 92 83 78 75 75 73 72
189 201 200 202 199 193 190 182 181 180 178 186 187 174 172 159 164 168 168 164 163 144 149 148 141 156 151 150 129 120 124 129 121 109 102 99 88 88 82 81 80 77 76
185 196 209 202 200 190 191 184 181 182 184 186 182 177 172 165 165 167 163 164 156 165 156 157 160 157 155 155 137 124 137 138 135 125 106 115 98 85 82 81 81 82 80
178 188 200 210 196 185 178 182 186 191 193 192 186 183 176 172 167 169 171 164 166 166 168 168 158 157 146 139 134 126 119 129 139 132 124 109 104 101 83 80 79 85 86
176 184 193 199 198 191 182 181 182 189 193 189 189 186 181 177 173 172 180 175 173 170 168 171 159 160 150 142 130 129 122 122 127 122 128 129 108 106 98 80 76 77 83
187 179 188 194 199 183 184 189 187 188 191 194 195 190 187 185 179 180 187 183 181 173 168 161 163 143 142 138 126 125 128 133 130 125 128 128 120 113 99 95 88 80 76
243 171 180 192 193 193 185 184 191 195 195 195 197 194 190 190 183 185 186 183 173 172 166 166 163 151 141 134 127 126 126 129 131 133 130 137 151 135 123 96 86 78 73
168 165 176 190 198 197 186 184 180 188 183 188 188 190 195 196 192 192 185 181 174 174 181 170 167 158 149 146 135 130 131 132 122 122 128 141 149 142 109 100 140 108 78
168 165 170 178 198 198 189 174 178 186 186 191 194 199 201 197 193 186 188 184 181 178 177 172 162 158 152 146 132 120 121 125 129 130 140 141 152 144 128 118 101 110 130
163 166 167 177 189 200 200 193 188 191 193 192 193 197 204 200 198 187 184 182 179 179 177 172 167 159 158 152 151 131 144 109 146 154 148 155 155 148 138 121 128 104 87
149 164 163 179 186 195 199 199 199 201 204 195 190 190 198 196 194 187 185 183 180 185 178 174 174 169 162 170 167 145 147 152 146 155 162 165 160 151 157 138 125 117 119
5 167 180 178 185 193 198 199 200 200 198 202 196 191 189 189 193 193 187 186 184 188 179 179 178 174 170 173 185 217 155 138 155 164 183 166 169 156 145 147 140 139 150
19 10 8 207 190 187 194 200 205 216 218 206 200 193 189 191 194 191 189 187 186 187 183 181 180 180 177 177 186 186 134 148 148 151 153 166 163 158 156 152 145 133 124
6 357 351 342 214 191 192 196 200 211 223 217 209 198 190 187 190 194 191 188 188 185 184 183 183 180 180 185 184 190 172 172 156 159 148 161 159 161 158 153 152 146 137